Location: ČR
(50.0000°N, 15.0000°E)
Time: 00:20:17
(UTC+02:00)

Envisat - Visible Passes

Search period start: 27 May 2024 00:00
Search period end: 06 June 2024 00:00
Orbit: 762 x 764 km, 98.3° (Epoch: 26 May)

Date Brightness Start Highest point End Pass type
(mag) Time Alt. Az. Time Alt. Az. Time Alt. Az.
27 May 5.7 02:45:36 10° ENE 02:46:56 11° E 02:48:16 10° E visible
28 May 4.4 03:44:37 10° NNE 03:49:18 36° E 03:53:57 10° SSE visible
29 May 5.4 03:08:07 10° NE 03:11:34 18° E 03:14:59 10° SE visible
30 May 3.6 04:08:40 10° NNE 04:13:41 57° E 04:18:40 10° S visible
31 May 4.8 03:31:44 10° NE 03:36:05 28° E 03:40:25 10° SSE visible
01 Jun 5.5 02:55:39 10° NE 02:58:16 14° E 03:00:53 10° ESE visible
02 Jun 4.0 03:55:39 10° NNE 04:00:31 44° E 04:05:21 10° S visible
03 Jun 5.1 03:18:54 10° NE 03:22:51 22° E 03:26:47 10° SE visible
04 Jun 5.7 02:43:52 10° ENE 02:44:57 11° E 02:46:02 10° E visible
05 Jun 4.4 03:42:40 10° NNE 03:47:19 35° E 03:51:56 10° SSE visible
